SCP
0 0 0 0 0 0 0 0 0 0 0 0 0 0 0 0 0 0 0 0 0 0 0 0 0 0 0 0 0 0 0 0 0 0 0 0 0 0
0 0 0 0 0 0 0 0 0 0 0 0 0 0 0 0 0 0 0 0 0 0 0 0 0 0 0 0 0 0 0 0 -0 0 0 0 0 0
0 0 0 0 0 0 0 0 0 0 0 0 0 0 0 0 0 0 0 0 0 0 0 0 0 0 0 0 0 0 0 0 -0 -0 0 0 0 0
0 0 0 0 0 0 0 0 0 0 0 0 0 0 0 0 0 0 0 0 0 0 0 0 0 0 0 0 0 0 0 0 0 0 0 0 0 0
0 0 0 0 0 0 0 0 0 0 0 0 0 0 0 0 0 0 0 0 0 0 0 0 0 0 0 0 0 0 -0 0 0 0 0 0 0 0
0 0 0 0 0 0 0 0 0 0 0 0 0 0 0 0 0 0 0 0 0 0 0 0 0 0 0 0 0 0 -0 0 0 0 0 0 0 0
0 0 0 0 0 0 0 0 0 0 0 0 0 0 0 0 0 0 0 0 0 0 0 0 0 0 0 0 0 0 0 0 0 0 0 0 0 0
0 0 0 0 0 0 0 0 0 0 0 0 0 0 0 0 0 0 0 0 0 0 0 0 0 0 0 0 0 0 0 0 0 0 0 0 0 0
0 0 0 0 0 0 0 0 0 0 0 0 0 0 0 0 0 0 0 0 0 0 0 0 0 0 0 0 0 0 0 0 0 0 0 0 0 0
0 0 0 0 0 0 0 0 0 0 0 0 0 0 0 0 0 0 0 0 0 0 0 0 0 0 0 0 -0 0 0 0 0 0 0 0 0 0
0 0 0 0 0 0 0 0 0 0 0 0 0 0 0 0 0 0 0 0 0 0 0 0 0 0 0 0 0 0 0 0 0 0 0 0 -0 0
0 0 0 0 -0 0 0 0 0 0 0 0 0 0 0 0 0 0 0 0 0 0 0 0 0 0 0 0 0 0 0 0 0 0 0 0 0 0
0 0 0 0 -0 -0 0 0 0 0 0 0 0 0 0 0 0 0 0 0 0 0 0 0 0 -0 0 0 0 0 0 0 0 0 -0 -0 -0 0
0 0 0 0 0 0 0 0 0 0 0 0 0 0 0 0 0 0 0 0 0 0 0 0 0 0 0 0 0 0 0 0 0 0 -0 -0 -0 0
0 0 0 -0 0 0 -0 -0 0 0 0 0 0 0 0 0 0 0 0 0 0 0 0 0 0 0 0 0 0 0 0 0 0 0 -0 -0 0 -0
0 0 0 0 0 0 0 0 -0 0 0 0 0 0 0 0 0 0 0 0 0 0 0 0 0 0 0 0 0 0 0 0 0 0 0 0 -0 0
0 0 0 0 0 0 0 0 0 0 0 0 0 0 0 0 0 0 0 0 0 0 0 0 0 0 0 0 0 0 0 0 0 0 0 0 0 0
0 0 0 0 0 0 0 0 0 0 0 0 0 0 0 0 0 0 0 0 0 0 0 0 0 0 0 0 0 0 0 0 0 0 0 0 0 0
0 0 0 0 0 0 0 0 0 0 0 0 0 0 0 0 0 0 0 0 0 0 0 -0 0 -0 0 0 0 0 0 0 0 0 0 0 0 0
0 0 0 0 0 0 0 0 0 0 0 0 0 0 0 0 0 0 0 0 0 0 -0 -0 0 -0 0 0 0 0 -0 0 0 0 0 0 0 0
0 0 0 0 0 0 0 0 0 0 0 0 0 0 0 0 0 0 0 -0 -0 -0 -0 0 0 -0 0 0 0 0 0 0 0 0 0 0 0 0
0 0 0 0 0 0 0 0 0 0 0 0 0 0 0 0 0 0 -0 -0 -0 -0 -0 0 0 0 -0 -0 -0 0 0 0 0 0 -0 0 0 0
0 0 0 0 0 0 0 0 0 0 0 0 0 0 0 0 0 0 -0 -0 -0 -0 0 0 0 -0 -0 -0 -0 -0 0 0 0 0 0 -0 -0 0
Wind_Speed_500mb
10 10 13 19 19 22 26 25 30 40 48 36 46 46 50 61 50 60 61 72 56 58 63 63 68 80 83 69 72 58 49 47 45 43 43 46 48 49
13 18 17 20 21 19 20 25 25 35 38 44 48 46 49 50 60 51 75 56 53 54 60 69 77 66 67 73 48 46 45 48 50 47 44 41 41 42
10 15 17 21 15 20 11 25 23 31 39 47 47 44 50 53 55 67 54 58 55 48 61 68 65 71 59 33 47 47 51 50 50 52 51 46 39 36
8 13 16 16 17 21 14 20 21 30 28 46 45 47 47 51 60 63 62 55 52 59 43 67 66 49 33 45 52 63 58 55 58 57 54 40 34 35
8 11 16 16 20 20 20 25 26 30 31 36 45 39 48 57 64 65 70 62 61 56 66 86 74 45 34 43 57 59 66 69 55 37 47 36 29 29
8 12 18 22 22 21 23 28 32 38 38 42 41 44 52 64 68 78 78 70 71 64 64 91 87 80 57 39 36 58 70 56 33 38 44 42 37 32
15 22 26 23 22 21 22 30 37 45 48 52 48 57 61 75 79 80 79 79 77 68 69 94 102 101 87 80 65 44 39 36 36 44 53 50 38 41
11 13 23 20 21 22 22 27 31 39 45 50 54 61 65 73 76 79 76 79 83 61 77 98 93 114 108 76 47 26 44 56 55 48 45 47 44 42
4 3 10 20 22 23 23 24 22 30 37 46 53 59 63 67 68 77 77 70 70 66 79 94 90 92 121 64 41 51 52 59 39 39 42 44 47 45
14 15 17 22 27 30 30 28 29 35 25 40 46 52 56 56 62 67 67 68 62 64 72 83 94 102 125 65 66 63 37 47 43 39 37 35 37 41
18 20 22 26 31 32 34 36 37 38 42 43 42 40 47 51 57 61 68 74 78 81 66 92 88 120 100 72 86 62 61 51 44 29 27 29 38 47
19 22 25 28 33 36 42 45 43 44 47 45 43 47 51 56 55 52 65 71 73 81 74 96 98 99 93 72 86 74 77 48 42 42 36 32 29 36
5 17 28 27 37 50 51 50 50 42 46 48 50 56 61 69 58 54 60 57 68 74 79 83 89 127 84 92 90 78 77 53 60 60 50 33 24 22
20 25 36 41 41 47 51 49 50 48 50 55 57 63 67 67 60 61 62 61 50 63 69 75 86 117 94 86 75 85 80 52 72 65 50 36 30 28
36 36 37 38 40 40 42 45 53 51 53 58 59 62 68 57 59 70 63 69 60 67 76 57 90 113 94 68 67 75 89 67 80 62 47 37 44 51
27 30 28 27 29 32 37 43 51 48 53 55 57 61 72 61 67 70 69 78 70 76 78 48 97 115 107 59 57 73 78 67 89 61 43 39 56 44
27 19 24 29 31 35 38 42 48 54 56 57 61 71 72 65 70 71 71 79 76 78 85 82 86 105 105 61 67 75 81 97 84 53 48 46 56 47
23 25 28 31 34 36 40 42 48 56 52 56 61 73 70 68 72 71 75 79 80 81 78 101 96 112 111 85 68 73 78 98 79 50 52 51 57 55
27 28 31 31 32 36 40 42 46 53 49 54 61 72 67 68 73 73 82 82 85 83 79 96 90 96 105 80 76 59 69 81 79 48 55 50 55 63
27 28 28 29 31 34 37 42 43 53 53 52 60 67 67 70 73 74 80 80 86 84 87 97 92 81 97 73 70 65 54 66 84 59 38 45 37 51
25 26 27 28 30 31 32 37 40 48 52 52 61 61 66 73 73 73 78 75 84 82 88 94 88 71 76 71 73 69 54 59 72 62 47 20 33 55
24 24 25 26 28 30 31 33 38 48 55 56 62 56 64 69 71 74 76 77 83 80 83 84 76 95 86 80 75 67 56 46 51 55 54 54 49 46
23 23 22 22 24 27 28 32 42 50 55 58 62 54 61 68 67 73 70 74 77 84 87 90 77 99 85 80 74 64 55 47 42 44 58 62 59 61
Wind_Direction_500mb
304 336 295 301 303 313 311 327 339 330 323 324 335 324 323 323 337 323 325 332 348 344 328 325 322 317 319 318 323 326 333 326 320 312 306 302 297 283
316 324 322 329 324 318 334 347 316 328 316 321 318 327 330 341 332 321 327 344 334 326 324 322 320 319 319 322 331 332 333 325 324 324 316 305 300 294
320 324 339 329 348 323 358 324 321 309 310 323 333 341 345 336 321 323 337 326 331 343 318 323 321 315 321 339 332 325 320 320 321 324 322 319 307 306
335 320 327 326 331 333 325 312 312 320 331 330 339 341 342 327 320 329 335 343 347 337 343 342 344 343 343 339 330 326 323 319 317 321 319 318 305 303
312 324 342 347 345 351 339 344 339 348 348 339 334 345 330 323 336 343 347 352 346 355 351 357 353 358 339 332 327 316 314 315 312 318 332 322 308 302
11 9 6 360 355 354 356 359 358 357 353 348 346 340 335 340 350 352 353 360 356 353 340 350 355 359 351 329 318 301 305 305 300 303 317 319 300 290
32 7 359 6 359 349 360 7 4 355 352 353 355 346 351 354 356 353 351 353 354 352 333 341 355 359 358 351 330 324 338 328 314 303 300 311 298 290
110 44 348 4 4 357 13 10 358 351 346 354 354 355 356 357 350 351 347 350 341 355 332 340 352 353 354 348 339 347 331 329 319 303 297 297 293 288
124 144 339 12 11 11 4 6 3 347 350 6 352 356 353 354 347 347 350 348 339 343 332 335 344 340 351 357 2 340 323 322 321 314 305 289 287 286
57 44 30 21 18 13 14 11 13 7 16 11 358 356 353 353 350 347 347 341 344 347 338 337 342 337 346 358 359 342 340 337 330 319 315 304 291 283
56 42 35 28 25 20 25 26 32 31 27 22 4 358 350 347 344 349 356 347 345 345 340 340 339 339 342 348 353 358 358 354 347 342 326 304 292 287
31 40 33 32 29 29 30 27 26 24 18 9 2 355 1 349 3 7 1 350 345 344 342 339 341 351 338 342 352 357 359 360 1 358 351 338 313 303
78 31 38 40 37 34 32 26 21 19 16 8 4 1 2 356 12 10 8 0 351 350 339 339 348 346 345 334 348 1 2 4 3 4 0 356 349 329
70 55 47 40 35 26 25 18 16 21 17 8 5 3 359 1 11 10 8 353 3 353 344 341 355 350 350 343 341 355 6 7 7 1 4 1 351 332
60 50 45 38 35 28 20 13 7 18 15 9 4 1 355 5 12 10 6 356 8 4 355 343 348 356 359 347 344 0 2 8 9 4 4 6 353 340
69 49 43 40 31 29 22 18 4 16 18 6 3 359 2 15 12 9 1 358 1 0 1 349 346 357 357 2 1 4 6 352 4 7 7 15 352 358
68 60 50 42 33 30 21 22 3 14 17 3 2 1 7 19 13 7 0 359 0 358 356 349 352 354 1 11 9 10 7 7 12 11 18 21 12 18
73 58 50 41 33 25 21 20 6 8 12 2 4 2 10 20 11 4 1 1 360 357 357 353 352 354 0 16 16 9 10 9 15 19 26 31 36 35
68 59 47 37 30 26 21 15 10 0 8 4 4 6 13 20 11 2 359 1 360 358 357 358 355 357 359 356 15 24 11 6 12 38 43 41 50 54
61 55 48 34 31 25 21 10 7 356 5 5 4 8 18 20 7 2 1 3 358 357 357 360 360 354 360 0 356 14 22 9 11 24 56 51 57 80
54 51 43 35 27 25 19 11 4 354 5 8 7 12 19 19 4 0 5 3 358 360 357 358 357 346 9 15 13 19 28 33 18 22 34 41 43 66
62 45 40 33 24 19 19 9 356 2 8 10 9 13 19 18 4 358 7 359 359 357 356 356 2 354 15 17 15 18 24 31 28 34 47 55 62 62
67 50 35 27 28 13 18 1 5 7 9 9 9 12 20 13 4 358 7 358 359 356 358 357 3 0 15 17 19 21 25 31 39 43 65 74 77 83
Wind_Speed_850mb
10 10 13 19 19 22 26 25 30 40 48 36 46 46 50 61 50 60 61 72 56 58 63 63 68 80 83 69 72 58 49 47 45 43 43 46 48 49
13 18 17 20 21 19 20 25 25 35 38 44 48 46 49 50 60 51 75 56 53 54 60 69 77 66 67 73 48 46 45 48 50 47 44 41 41 42
10 15 17 21 15 20 11 25 23 31 39 47 47 44 50 53 55 67 54 58 55 48 61 68 65 71 59 33 47 47 51 50 50 52 51 46 39 36
8 13 16 16 17 21 14 20 21 30 28 46 45 47 47 51 60 63 62 55 52 59 43 67 66 49 33 45 52 63 58 55 58 57 54 40 34 35
8 11 16 16 20 20 20 25 26 30 31 36 45 39 48 57 64 65 70 62 61 56 66 86 74 45 34 43 57 59 66 69 55 37 47 36 29 29
8 12 18 22 22 21 23 28 32 38 38 42 41 44 52 64 68 78 78 70 71 64 64 91 87 80 57 39 36 58 70 56 33 38 44 42 37 32
15 22 26 23 22 21 22 30 37 45 48 52 48 57 61 75 79 80 79 79 77 68 69 94 102 101 87 80 65 44 39 36 36 44 53 50 38 41
11 13 23 20 21 22 22 27 31 39 45 50 54 61 65 73 76 79 76 79 83 61 77 98 93 114 108 76 47 26 44 56 55 48 45 47 44 42
4 3 10 20 22 23 23 24 22 30 37 46 53 59 63 67 68 77 77 70 70 66 79 94 90 92 121 64 41 51 52 59 39 39 42 44 47 45
14 15 17 22 27 30 30 28 29 35 25 40 46 52 56 56 62 67 67 68 62 64 72 83 94 102 125 65 66 63 37 47 43 39 37 35 37 41
18 20 22 26 31 32 34 36 37 38 42 43 42 40 47 51 57 61 68 74 78 81 66 92 88 120 100 72 86 62 61 51 44 29 27 29 38 47
19 22 25 28 33 36 42 45 43 44 47 45 43 47 51 56 55 52 65 71 73 81 74 96 98 99 93 72 86 74 77 48 42 42 36 32 29 36
5 17 28 27 37 50 51 50 50 42 46 48 50 56 61 69 58 54 60 57 68 74 79 83 89 127 84 92 90 78 77 53 60 60 50 33 24 22
20 25 36 41 41 47 51 49 50 48 50 55 57 63 67 67 60 61 62 61 50 63 69 75 86 117 94 86 75 85 80 52 72 65 50 36 30 28
36 36 37 38 40 40 42 45 53 51 53 58 59 62 68 57 59 70 63 69 60 67 76 57 90 113 94 68 67 75 89 67 80 62 47 37 44 51
27 30 28 27 29 32 37 43 51 48 53 55 57 61 72 61 67 70 69 78 70 76 78 48 97 115 107 59 57 73 78 67 89 61 43 39 56 44
27 19 24 29 31 35 38 42 48 54 56 57 61 71 72 65 70 71 71 79 76 78 85 82 86 105 105 61 67 75 81 97 84 53 48 46 56 47
23 25 28 31 34 36 40 42 48 56 52 56 61 73 70 68 72 71 75 79 80 81 78 101 96 112 111 85 68 73 78 98 79 50 52 51 57 55
27 28 31 31 32 36 40 42 46 53 49 54 61 72 67 68 73 73 82 82 85 83 79 96 90 96 105 80 76 59 69 81 79 48 55 50 55 63
27 28 28 29 31 34 37 42 43 53 53 52 60 67 67 70 73 74 80 80 86 84 87 97 92 81 97 73 70 65 54 66 84 59 38 45 37 51
25 26 27 28 30 31 32 37 40 48 52 52 61 61 66 73 73 73 78 75 84 82 88 94 88 71 76 71 73 69 54 59 72 62 47 20 33 55
24 24 25 26 28 30 31 33 38 48 55 56 62 56 64 69 71 74 76 77 83 80 83 84 76 95 86 80 75 67 56 46 51 55 54 54 49 46
23 23 22 22 24 27 28 32 42 50 55 58 62 54 61 68 67 73 70 74 77 84 87 90 77 99 85 80 74 64 55 47 42 44 58 62 59 61
Wind_Direction_850mb
304 336 295 301 303 313 311 327 339 330 323 324 335 324 323 323 337 323 325 332 348 344 328 325 322 317 319 318 323 326 333 326 320 312 306 302 297 283
316 324 322 329 324 318 334 347 316 328 316 321 318 327 330 341 332 321 327 344 334 326 324 322 320 319 319 322 331 332 333 325 324 324 316 305 300 294
320 324 339 329 348 323 358 324 321 309 310 323 333 341 345 336 321 323 337 326 331 343 318 323 321 315 321 339 332 325 320 320 321 324 322 319 307 306
335 320 327 326 331 333 325 312 312 320 331 330 339 341 342 327 320 329 335 343 347 337 343 342 344 343 343 339 330 326 323 319 317 321 319 318 305 303
312 324 342 347 345 351 339 344 339 348 348 339 334 345 330 323 336 343 347 352 346 355 351 357 353 358 339 332 327 316 314 315 312 318 332 322 308 302
11 9 6 360 355 354 356 359 358 357 353 348 346 340 335 340 350 352 353 360 356 353 340 350 355 359 351 329 318 301 305 305 300 303 317 319 300 290
32 7 359 6 359 349 360 7 4 355 352 353 355 346 351 354 356 353 351 353 354 352 333 341 355 359 358 351 330 324 338 328 314 303 300 311 298 290
110 44 348 4 4 357 13 10 358 351 346 354 354 355 356 357 350 351 347 350 341 355 332 340 352 353 354 348 339 347 331 329 319 303 297 297 293 288
124 144 339 12 11 11 4 6 3 347 350 6 352 356 353 354 347 347 350 348 339 343 332 335 344 340 351 357 2 340 323 322 321 314 305 289 287 286
57 44 30 21 18 13 14 11 13 7 16 11 358 356 353 353 350 347 347 341 344 347 338 337 342 337 346 358 359 342 340 337 330 319 315 304 291 283
56 42 35 28 25 20 25 26 32 31 27 22 4 358 350 347 344 349 356 347 345 345 340 340 339 339 342 348 353 358 358 354 347 342 326 304 292 287
31 40 33 32 29 29 30 27 26 24 18 9 2 355 1 349 3 7 1 350 345 344 342 339 341 351 338 342 352 357 359 360 1 358 351 338 313 303
78 31 38 40 37 34 32 26 21 19 16 8 4 1 2 356 12 10 8 0 351 350 339 339 348 346 345 334 348 1 2 4 3 4 0 356 349 329
70 55 47 40 35 26 25 18 16 21 17 8 5 3 359 1 11 10 8 353 3 353 344 341 355 350 350 343 341 355 6 7 7 1 4 1 351 332
60 50 45 38 35 28 20 13 7 18 15 9 4 1 355 5 12 10 6 356 8 4 355 343 348 356 359 347 344 0 2 8 9 4 4 6 353 340
69 49 43 40 31 29 22 18 4 16 18 6 3 359 2 15 12 9 1 358 1 0 1 349 346 357 357 2 1 4 6 352 4 7 7 15 352 358
68 60 50 42 33 30 21 22 3 14 17 3 2 1 7 19 13 7 0 359 0 358 356 349 352 354 1 11 9 10 7 7 12 11 18 21 12 18
73 58 50 41 33 25 21 20 6 8 12 2 4 2 10 20 11 4 1 1 360 357 357 353 352 354 0 16 16 9 10 9 15 19 26 31 36 35
68 59 47 37 30 26 21 15 10 0 8 4 4 6 13 20 11 2 359 1 360 358 357 358 355 357 359 356 15 24 11 6 12 38 43 41 50 54
61 55 48 34 31 25 21 10 7 356 5 5 4 8 18 20 7 2 1 3 358 357 357 360 360 354 360 0 356 14 22 9 11 24 56 51 57 80
54 51 43 35 27 25 19 11 4 354 5 8 7 12 19 19 4 0 5 3 358 360 357 358 357 346 9 15 13 19 28 33 18 22 34 41 43 66
62 45 40 33 24 19 19 9 356 2 8 10 9 13 19 18 4 358 7 359 359 357 356 356 2 354 15 17 15 18 24 31 28 34 47 55 62 62
67 50 35 27 28 13 18 1 5 7 9 9 9 12 20 13 4 358 7 358 359 356 358 357 3 0 15 17 19 21 25 31 39 43 65 74 77 83